Probability
0 2 8 14 12 5 1 0 0 0 0 0 0 0 0 0 0 0 0 0 0 0 0 0 0 0 0 0 0 0 0 0 0 0 0 0 1 1 1 0 0 0 0 0 0 0 0 0 0
0 2 7 11 8 3 0 0 0 0 0 0 0 0 0 0 0 0 0 0 0 1 1 1 0 0 0 0 0 0 0 0 0 0 0 0 0 0 0 0 0 0 0 0 0 0 0 0 0
1 3 5 5 3 1 0 0 0 0 0 0 0 0 0 0 0 0 0 0 1 2 2 2 1 0 0 0 0 0 0 0 0 0 0 0 0 0 0 0 0 0 0 0 0 1 0 0 0
3 3 2 1 1 0 0 0 0 0 0 1 1 0 0 0 0 0 0 0 1 2 3 3 2 1 0 0 0 0 0 0 0 0 0 0 0 0 0 0 0 0 1 0 0 0 0 0 0
2 2 1 0 0 0 0 0 0 0 1 2 2 1 0 0 0 0 0 0 1 2 3 3 3 2 1 0 0 0 0 0 0 0 0 0 0 0 0 0 0 0 0 0 0 0 0 0 0
1 1 0 0 0 0 0 0 0 0 1 2 2 1 0 0 0 1 1 1 1 3 3 3 3 3 2 1 0 0 0 0 0 0 0 1 0 0 0 0 0 0 0 0 0 0 0 0 0
0 0 0 0 0 0 0 0 0 0 1 2 2 1 1 1 1 2 2 2 1 3 4 3 3 3 2 1 0 0 0 0 0 0 0 0 0 0 0 0 0 0 0 0 0 0 0 0 0
0 0 0 0 0 0 0 0 0 0 0 1 2 2 2 2 2 2 3 3 2 3 3 3 3 4 3 2 1 0 0 0 0 0 0 0 0 0 0 0 0 0 0 0 0 0 0 0 0
0 0 0 0 0 0 0 0 0 0 1 1 3 4 4 2 1 2 3 3 3 3 3 3 4 4 4 4 3 1 0 0 0 0 0 1 1 1 1 1 1 0 0 0 1 1 1 1 1
0 0 0 0 0 0 0 0 0 1 2 2 4 7 6 2 1 3 3 3 3 3 3 3 3 3 4 4 4 2 2 1 0 0 0 1 1 1 2 2 2 1 1 1 3 4 4 3 3
0 0 0 0 0 0 0 0 0 1 2 3 6 8 6 3 3 3 3 3 3 3 3 3 3 2 3 3 3 3 3 3 1 1 1 1 1 1 2 4 4 3 3 3 4 5 5 4 3
0 0 0 0 0 0 0 0 0 0 2 4 7 9 8 5 4 3 3 3 3 3 3 3 3 2 2 3 3 3 3 3 2 2 1 1 1 2 3 5 5 4 3 3 4 4 3 2 1
0 0 0 0 0 0 0 0 0 1 2 4 7 9 8 6 5 4 4 3 3 3 3 4 3 3 3 2 2 3 3 2 3 4 3 3 3 3 4 5 5 3 3 4 5 5 3 2 1
0 0 0 0 0 0 0 0 0 1 3 5 7 8 7 7 7 7 6 5 4 4 5 6 5 5 5 4 3 4 4 3 3 6 7 6 6 6 6 7 7 6 5 5 7 7 6 5 4
0 0 0 0 0 1 0 0 0 1 3 5 6 7 7 7 7 9 9 8 7 7 8 9 8 8 8 7 6 6 6 4 4 6 8 9 9 9 8 8 9 8 8 8 8 9 9 8 7
0 0 0 0 0 0 0 0 0 1 3 4 5 6 7 7 8 9 9 10 11 11 12 11 9 10 10 8 6 6 6 5 4 5 8 10 11 11 10 9 10 10 9 8 9 9 9 8 8
0 0 0 0 0 0 0 0 1 3 4 4 5 7 8 8 9 10 9 10 12 15 16 14 11 11 12 9 6 6 6 6 6 7 9 11 12 12 11 11 12 12 11 10 8 8 8 8 8
0 0 0 0 0 1 1 1 2 3 5 5 7 9 11 11 12 13 12 13 16 21 22 18 15 15 14 11 9 8 9 9 10 12 14 14 12 11 10 10 11 12 12 11 9 8 8 8 9
0 0 0 0 0 1 1 1 2 4 5 7 9 12 14 17 18 19 20 22 26 31 31 26 23 22 19 16 14 13 12 12 12 15 17 17 14 12 10 9 9 10 11 11 10 9 8 8 9
0 0 0 0 0 1 1 1 3 5 7 8 9 10 13 19 25 28 27 29 35 40 39 33 30 28 24 19 18 17 16 14 14 15 17 17 16 14 12 10 8 7 9 9 9 9 9 8 8
0 0 0 0 0 0 1 3 6 8 8 8 7 6 9 16 25 30 30 32 38 42 42 38 35 33 28 24 22 23 24 21 18 17 18 19 18 16 15 14 10 7 7 8 8 9 9 9 8
0 0 0 0 0 0 0 3 8 10 9 7 4 3 5 12 22 28 30 33 37 39 39 41 42 39 34 31 30 32 32 29 23 22 25 25 23 20 20 20 16 11 9 8 9 9 9 8 7
0 0 0 0 0 0 0 3 9 12 10 6 4 4 5 11 20 27 31 33 35 34 36 41 47 46 40 37 38 39 37 33 28 27 30 32 29 25 24 26 24 20 16 14 14 12 11 9 7
0 0 0 0 0 0 0 2 8 13 11 8 6 6 7 12 21 28 34 37 36 32 33 41 51 51 46 42 41 41 40 36 33 31 33 34 31 29 28 29 29 28 25 23 20 15 12 10 9
0 0 0 0 0 0 0 3 9 13 13 11 9 9 10 15 23 30 38 43 41 36 37 45 55 57 52 46 43 43 43 40 37 35 35 36 33 33 34 35 36 34 30 28 23 17 12 11 10
0 0 0 0 0 0 1 5 11 14 13 12 11 11 12 16 24 31 37 43 44 43 43 48 56 60 56 50 47 46 45 41 37 35 36 37 35 37 41 44 43 38 32 28 24 19 14 11 10
0 0 0 0 0 0 2 6 11 13 12 11 11 12 13 16 21 28 33 38 41 43 46 48 54 58 57 54 52 52 49 43 37 34 34 34 34 36 43 48 47 42 35 30 26 22 16 12 11
0 0 0 0 0 0 2 5 10 12 13 12 12 12 12 13 16 23 29 34 37 41 46 49 53 58 58 57 56 55 52 46 39 34 31 30 30 34 41 46 45 42 38 33 28 22 17 16 16
0 0 0 0 0 0 1 3 7 11 14 15 15 15 14 12 13 19 28 34 38 41 46 51 55 59 61 61 59 56 54 49 43 37 32 29 29 32 39 43 41 39 36 31 25 19 17 18 19
0 0 0 1 1 1 0 2 5 11 15 17 17 18 16 13 13 19 30 39 43 44 46 51 56 60 63 64 62 57 55 52 45 40 35 31 29 30 36 39 38 35 30 26 22 17 16 17 18
Wind_Speed
9 11 9 7 1 7 15 16 15 14 15 16 17 16 19 17 12 12 8 12 14 14 13 13 13 14 15 15 15 15 15 16 17 17 17 17 17 18 18 17 17 17 16 16 16 16 16 15 15
10 12 8 3 4 10 14 14 15 14 14 15 18 19 19 18 16 13 10 12 15 15 13 13 14 14 15 15 14 14 15 16 16 17 17 18 18 18 17 17 16 16 15 16 16 16 15 14 13
12 15 6 3 10 12 14 14 13 12 12 15 17 17 14 13 14 11 11 13 15 15 14 13 14 15 15 15 14 14 15 16 17 17 17 18 17 17 17 17 16 15 15 15 15 15 14 13 12
10 6 1 7 16 16 14 12 13 13 13 14 15 14 14 14 13 13 13 14 16 16 15 13 14 14 14 14 15 15 15 16 16 17 17 17 17 17 16 16 15 15 15 15 15 14 13 12 10
7 2 5 11 17 15 13 13 13 13 15 17 18 18 16 15 14 14 13 14 15 16 15 14 14 14 14 14 15 15 16 16 16 16 16 16 16 16 15 15 15 14 14 14 13 13 11 9 7
4 0 5 11 15 13 12 13 14 14 16 18 18 18 14 13 12 12 12 12 14 16 15 14 14 14 14 14 14 14 15 15 15 15 16 15 15 15 14 14 13 13 13 13 12 11 9 7 5
2 3 6 13 14 13 12 12 13 13 13 14 16 16 13 11 10 11 11 11 13 14 14 13 12 12 13 13 13 14 14 14 14 14 14 14 14 14 13 12 12 12 11 11 10 9 8 6 3
1 2 6 11 13 14 12 13 13 13 12 12 12 12 13 12 12 12 11 11 11 11 12 12 12 11 11 11 13 13 13 13 12 12 12 12 13 12 12 11 10 10 9 9 9 8 7 4 2
1 3 6 11 13 13 13 14 14 13 13 13 14 17 18 15 14 12 11 10 9 9 8 10 11 10 10 11 12 11 11 11 10 9 10 8 6 8 8 11 10 9 8 7 7 6 5 4 3
3 5 10 12 13 13 12 12 13 13 14 16 17 18 17 15 13 11 11 10 9 8 7 7 8 8 8 9 8 7 7 7 5 5 6 3 3 5 8 10 10 9 7 6 6 5 5 4 3
6 8 9 12 13 12 12 12 12 13 14 16 17 17 16 15 12 11 10 10 9 7 7 8 6 4 6 6 6 4 4 5 5 6 4 3 3 4 5 4 6 5 6 4 5 5 3 2 1
5 7 8 11 11 11 11 13 13 13 15 17 16 16 15 14 12 11 10 10 9 7 7 8 7 5 4 4 4 4 4 4 3 4 4 3 2 2 2 2 2 2 2 2 2 1 1 1 1
4 7 8 9 10 10 11 13 15 16 17 18 17 16 14 13 12 11 11 10 9 7 8 8 7 5 4 3 2 3 3 4 4 3 3 3 2 2 3 2 1 1 1 2 1 1 1 1 1
3 4 7 8 10 9 10 11 14 15 17 17 16 14 13 12 12 11 10 10 9 8 8 7 7 6 3 2 2 2 3 3 3 3 4 3 3 3 3 2 1 1 1 2 1 1 0 0 0
2 5 7 9 9 9 10 8 13 16 16 16 15 13 12 11 11 10 10 9 9 8 8 7 7 6 4 2 2 3 3 4 3 3 4 3 3 3 2 2 1 1 1 1 0 0 0 1 0
8 8 7 9 8 10 9 8 10 14 15 15 14 13 12 11 11 10 10 8 8 8 7 6 7 7 4 2 1 1 2 3 3 3 3 4 3 2 2 2 1 1 1 0 0 0 0 0 0
11 10 9 9 8 7 7 10 10 13 14 14 13 13 13 11 11 11 11 10 9 8 7 5 5 7 5 4 2 1 1 2 2 2 2 3 3 2 2 1 1 1 0 0 0 1 0 1 1
10 9 8 8 10 8 7 10 11 13 14 14 14 14 13 13 11 11 11 10 9 9 7 6 5 6 5 3 2 1 2 2 2 2 2 3 2 2 1 1 1 1 0 1 1 1 1 1 2
9 7 6 6 7 7 8 10 12 13 13 13 13 13 13 12 12 11 10 10 10 9 8 6 6 6 4 3 3 3 3 3 3 3 4 4 3 3 1 1 1 1 0 1 1 1 2 2 2
11 10 6 6 6 5 7 8 11 12 12 12 13 13 14 13 12 11 10 10 10 9 8 8 7 6 5 4 3 2 2 2 2 2 3 4 3 3 3 3 2 1 1 1 1 1 2 2 1
13 10 8 6 7 8 7 7 8 8 9 10 11 12 13 14 14 13 12 10 11 10 9 9 7 6 6 5 4 3 2 2 2 3 3 3 3 3 2 2 2 2 2 2 2 2 2 2 2
11 10 9 8 8 7 9 7 9 11 10 11 11 11 12 13 14 14 13 11 11 10 10 8 8 7 6 6 5 5 5 4 4 3 3 3 4 3 3 3 2 2 1 2 3 2 2 2 3
11 8 9 10 10 10 10 8 7 11 11 11 11 11 12 12 14 14 13 12 11 11 11 9 8 7 7 6 6 6 5 4 3 3 4 4 3 4 4 3 3 2 2 2 2 1 2 2 2
10 9 9 10 11 12 11 10 5 7 10 12 13 12 12 12 13 13 13 11 10 10 10 10 9 7 7 7 6 6 5 4 3 3 4 4 3 3 4 4 3 3 3 2 2 2 2 1 2
13 10 8 9 10 10 11 9 4 7 8 8 11 12 12 11 12 12 12 12 10 10 9 9 9 8 8 7 6 6 6 5 5 4 4 4 3 3 4 4 4 3 3 3 2 2 2 2 2
14 15 11 8 8 8 11 8 5 8 8 6 7 8 10 11 11 12 12 12 11 11 9 9 9 9 8 7 6 5 5 5 4 5 4 4 3 3 4 4 4 3 3 3 2 2 2 2 2
14 15 15 13 12 8 7 5 6 6 8 6 6 7 7 10 11 11 12 12 11 11 10 10 9 8 8 7 6 5 5 5 4 4 4 3 2 3 4 4 4 3 3 2 2 1 1 1 1
15 13 10 11 9 9 8 9 6 9 9 7 5 7 7 7 9 10 10 10 10 9 8 9 9 8 8 7 6 6 6 5 4 3 3 3 2 1 3 3 3 3 3 2 2 1 1 1 1
15 15 12 9 9 10 7 3 3 7 8 9 8 6 6 7 8 8 7 8 8 8 8 7 7 8 8 7 6 5 5 5 5 4 3 3 2 2 2 3 3 3 2 2 2 2 1 1 0
13 14 13 10 8 8 7 1 4 4 7 7 7 6 5 4 5 7 7 7 6 7 7 7 6 6 6 6 6 5 4 5 5 5 4 3 3 3 2 2 2 2 2 2 2 2 1 0 0
Wind_Direction
270 249 229 244 177 74 69 66 65 64 63 60 62 68 63 54 68 84 100 96 95 93 91 84 78 79 79 78 80 82 84 84 85 87 87 92 91 90 89 90 92 96 97 98 101 100 100 99 100
273 261 238 240 73 74 72 70 67 67 71 72 70 72 71 68 79 96 103 101 100 98 92 85 82 81 81 79 80 84 86 86 87 89 88 89 89 89 91 90 89 93 96 97 100 98 99 100 101
263 257 259 79 71 73 77 76 80 77 77 81 76 66 62 80 83 98 110 107 100 95 92 88 85 84 85 83 82 88 90 89 89 91 91 91 91 91 91 91 90 94 98 97 96 96 97 96 98
263 246 171 79 77 75 79 86 87 85 77 81 84 78 71 76 95 110 114 108 104 101 96 92 89 87 87 86 85 88 92 93 94 95 94 93 92 90 90 91 91 92 95 94 95 96 97 96 97
241 266 93 86 84 84 82 85 88 86 81 80 85 91 87 90 104 114 113 109 106 103 101 100 94 91 90 90 90 92 93 94 94 97 96 95 95 93 92 91 92 91 93 94 94 96 98 99 102
250 68 86 92 91 88 86 87 88 89 96 101 101 100 96 106 109 111 111 110 108 108 106 106 100 96 94 96 95 94 96 97 96 97 99 99 100 99 96 94 93 93 94 96 97 98 102 102 98
287 60 92 99 100 92 86 87 90 92 95 101 108 106 111 115 112 106 104 101 102 107 114 118 115 107 102 103 103 101 100 101 101 104 105 107 106 105 103 100 98 97 97 99 102 104 109 108 98
288 84 89 97 99 95 93 89 88 95 92 107 115 115 128 133 125 113 104 96 98 105 113 119 122 124 121 113 111 110 110 110 112 113 116 117 117 116 116 112 105 105 108 110 112 116 120 125 144
343 69 69 90 98 103 105 101 98 96 94 78 82 109 127 133 128 121 112 105 97 97 104 114 124 133 130 125 126 127 123 124 127 128 134 138 133 130 128 115 122 124 125 125 129 136 148 166 201
70 82 81 88 100 108 110 112 118 113 103 95 97 111 128 135 133 130 126 121 111 108 108 105 115 127 126 124 135 142 132 136 144 135 144 148 123 120 121 128 138 143 146 149 163 174 187 208 198
77 83 87 96 103 110 112 109 110 115 113 116 121 130 137 135 135 135 127 119 118 125 121 109 97 89 108 121 136 126 122 136 134 125 125 125 121 129 131 144 152 164 170 173 168 193 205 195 188
90 90 91 96 105 111 109 106 99 100 108 120 128 138 140 140 142 137 130 128 133 129 116 112 107 81 62 81 116 130 134 135 124 130 138 123 113 110 109 121 137 159 153 149 158 189 148 107 119
111 109 105 111 113 108 110 105 102 102 112 121 128 135 142 143 142 135 135 133 130 125 114 105 106 97 83 63 68 107 105 113 117 120 122 124 127 108 97 86 75 75 92 100 62 46 57 51 21
107 126 133 130 121 127 117 118 114 116 123 128 136 143 149 142 140 137 138 133 136 137 126 122 117 110 110 108 95 93 102 109 113 114 112 106 99 103 103 101 80 64 71 80 103 133 82 330 104
193 191 168 151 146 139 124 115 122 133 134 138 144 148 148 145 144 143 141 144 144 135 127 130 129 127 132 135 160 138 134 128 115 114 118 120 121 119 124 128 132 108 98 111 141 108 310 237 179
220 217 193 161 164 150 144 136 144 145 145 148 152 152 151 150 152 148 145 146 141 136 138 151 148 136 132 122 75 71 101 106 112 121 120 131 133 127 135 129 142 135 133 125 156 190 294 340 274
223 219 198 166 172 169 155 141 160 161 156 155 158 156 157 158 161 153 154 155 146 139 143 151 134 137 142 144 142 143 102 95 121 134 132 132 133 131 127 129 129 241 190 135 277 73 284 263 268
220 217 204 175 173 174 150 148 169 174 166 163 165 163 164 165 167 161 163 159 150 146 148 153 145 139 142 147 158 182 164 156 151 136 137 135 135 131 135 150 195 259 79 62 26 315 283 263 263
251 248 218 178 176 176 163 163 174 179 173 167 167 166 167 167 167 164 166 161 156 155 157 162 162 153 160 173 189 185 181 177 171 169 156 153 163 160 186 171 182 276 27 234 231 274 271 258 241
246 247 230 178 176 194 177 181 179 178 178 172 170 171 170 169 167 167 169 168 163 160 163 166 169 169 182 183 191 194 182 182 173 162 152 167 182 184 190 192 201 195 208 238 265 273 289 287 262
241 238 233 203 186 210 208 205 187 185 185 174 175 175 173 172 171 171 175 176 174 172 173 175 172 171 191 189 189 196 181 199 185 171 170 186 194 195 194 186 210 210 220 218 234 240 261 285 292
238 237 238 225 218 224 221 222 189 184 193 183 184 181 179 176 172 173 178 180 181 177 171 164 162 168 181 194 199 201 199 201 197 182 173 184 198 199 196 199 209 234 232 214 238 214 249 269 284
240 245 242 237 237 246 231 234 197 180 192 190 187 185 183 177 172 173 177 178 181 175 172 169 167 174 178 194 201 212 215 206 196 178 174 190 195 205 204 194 197 222 234 238 253 248 266 280 286
238 233 238 243 246 241 240 247 197 182 196 193 186 188 184 180 174 172 174 170 177 178 176 173 169 175 181 194 202 208 215 211 208 196 183 193 194 205 206 203 193 205 224 232 233 245 252 272 310
226 223 218 222 227 240 232 231 193 176 188 189 186 185 179 177 172 169 168 168 174 178 176 170 167 175 184 193 202 206 210 209 211 215 206 210 206 202 199 202 188 202 208 221 225 233 250 265 280
217 227 231 232 232 232 230 222 184 165 165 176 181 173 173 172 172 169 170 169 176 179 175 170 168 176 184 193 199 203 201 211 214 216 223 213 214 207 177 181 185 195 206 220 207 226 221 227 254
218 227 239 249 257 250 228 206 191 160 159 165 161 163 177 175 171 170 172 172 176 178 176 176 169 175 183 191 190 198 203 214 217 206 212 228 223 189 164 169 176 190 200 220 212 223 250 250 247
237 230 234 243 257 254 242 223 201 166 168 161 164 164 171 175 171 166 169 167 170 171 169 171 170 173 179 187 193 195 196 202 210 220 204 209 225 196 145 159 172 186 189 195 210 218 239 236 248
218 228 238 249 252 252 241 215 190 164 171 169 167 165 161 167 161 156 154 154 157 160 160 159 162 166 176 185 188 194 185 189 194 205 206 202 204 191 173 175 184 189 190 203 211 224 254 234 247
230 228 228 236 249 262 267 211 96 143 166 155 138 118 109 121 128 135 138 134 142 148 151 154 160 164 173 178 178 188 183 183 192 199 200 192 191 201 193 192 194 203 196 207 213 224 247 245 346